Orbital Elements at Epoch 2459200.5 (2020-Dec-17.0) TDB
Reference: JPL 18 (heliocentric ecliptic J2000)
Element | Value | Uncertainty (1-sigma) | Units |
e | .1747679128263042 | 3.6019e-08 | |
a | 2.372176846907796 | 1.1154e-08 | au |
q | 1.957596450518837 | 8.6205e-08 | au |
i | 2.179701583247874 | 4.1871e-06 | deg |
node | 108.6967125594768 | 0.00011702 | deg |
peri | 168.5420490116032 | 0.0001178 | deg |
M | 348.9962153054176 | 1.4725e-05 | deg |
tp | 2459241.290460138656 (2021-Jan-26.79046014) | 5.4663e-05 | TDB |
period | 1334.50136089504 3.65 | 9.412e-06 2.577e-08 | d yr |
n | .269763681438699 | 1.9026e-09 | deg/d |
Q | 2.786757243296754 | 1.3103e-08 | au |
|
| | Orbit Determination Parameters
Additional Information
|